Flag for Brazil Weather past 2 weeks in Londrina, Paraná, Brazil

Now
57 °F

Sunny.


Feels Like: 57 °F
Forecast: 58 / 78 °F
Wind: 2 mph from Southwest

Location: Londrina Aeroporto

Current Time: Jul 31, 2014 at 6:29:32 AM

Latest Report: Jul 31, 2014 at 6:00 AM


Visibility: 10 mi

Pressure: 30.15 "Hg

Humidity: 94%

Dew point: 55 °F

Location of LondrinaLocation

Historic Weather in Londrina — Graph

°F

Londrina temperature yesterday

Maximum temperature yesterday: 77 °F (at 4:00 PM)
Minimum temperature yesterday: 55 °F (at 4:00 AM)
Average temperature yesterday: 65 °F

Past Weeks' High & Low Weather Summary

 TemperatureHumidityPressure
High82 °F (Jul 17, 3:00 PM)100% (Jul 18, 3:00 AM)30.39 "Hg (Jul 18, 3:00 AM)
Low46 °F (Jul 19, 7:00 AM)32% (Jul 24, 9:00 AM)29.89 "Hg (Jul 24, 2:00 AM)
Average62 °F74%30.18 "Hg
* Reported Jul 16 5:00 AM — Jul 31 5:00 AM, Londrina, Weather by CustomWeather, © 2014

Note: Actual official high and low records may vary slightly from our data, if they occured in-between our weather recording intervals... More about our weather records

Advertising

Londrina weather history for previous 24 hours

 ConditionsComfort  
Time TempWeatherWind HumidityBarometerVisibility
5:00 AM
Jul 31
59 °FClear.3 mph88%30.12 "Hg10 mi
4:00 AM59 °FClear.2 mph94%30.12 "Hg10 mi
3:00 AM61 °FClear.No wind88%30.15 "Hg10 mi
2:00 AM61 °FClear.1 mph88%30.15 "Hg10 mi
1:00 AM63 °FClear.2 mph83%30.18 "Hg10 mi
12:00 AM63 °FClear.2 mph83%30.18 "Hg10 mi
11:00 PM
Jul 30
63 °FClear.3 mph88%30.21 "Hg10 mi
10:00 PM64 °FClear.3 mph83%30.18 "Hg10 mi
9:00 PM66 °FClear.2 mph78%30.18 "Hg10 mi
8:00 PM66 °FClear.3 mph78%30.18 "Hg10 mi
7:00 PM70 °FClear.6 mph69%30.18 "Hg10 mi
6:00 PM72 °FClear.5 mph69%30.18 "Hg10 mi
5:00 PM75 °FSunny.7 mph54%30.18 "Hg10 mi
4:00 PM77 °FSunny.6 mph51%30.18 "Hg10 mi
3:00 PM75 °FSunny.7 mph54%30.18 "Hg10 mi
2:00 PM75 °FSunny.8 mph57%30.21 "Hg10 mi
1:00 PM75 °FSunny.8 mph57%30.24 "Hg10 mi
12:00 PM72 °FSunny.7 mph61%30.27 "Hg10 mi
11:00 AM68 °FSunny.7 mph69%30.30 "Hg10 mi
10:00 AM64 °FSunny.5 mph73%30.33 "Hg10 mi
9:00 AM61 °FSunny.5 mph83%30.33 "Hg10 mi
8:00 AM59 °FSunny.2 mph82%30.30 "Hg10 mi
7:00 AM55 °FSunny.2 mph94%30.30 "Hg10 mi
6:00 AM55 °FSunny.2 mph94%30.27 "Hg10 mi
Weather by CustomWeather, © 2014

See weather overviewHow to use our weather pages